TimeAKDT,TemperatureF,Dew PointF,Humidity,Sea Level PressureIn,VisibilityMPH,Wind Direction,Wind SpeedMPH,Gust SpeedMPH,PrecipitationIn,Events,Conditions,WindDirDegrees,DateUTC
12:53 AM,64.9,44.1,47,30.07,10.0,NNE,5.8,-,N/A,,Mostly Cloudy,20,2013-07-21 08:53:00
1:53 AM,64.0,41.0,43,30.07,10.0,North,4.6,-,N/A,,Partly Cloudy,10,2013-07-21 09:53:00
2:53 AM,62.1,41.0,46,30.07,10.0,Calm,Calm,-,N/A,,Partly Cloudy,0,2013-07-21 10:53:00
3:53 AM,60.1,42.1,51,30.06,10.0,NNW,4.6,-,N/A,,Partly Cloudy,330,2013-07-21 11:53:00
4:53 AM,57.9,42.1,56,30.05,10.0,Calm,Calm,-,N/A,,Scattered Clouds,0,2013-07-21 12:53:00
5:53 AM,55.9,45.0,67,30.05,10.0,Calm,Calm,-,N/A,,Scattered Clouds,0,2013-07-21 13:53:00
6:53 AM,57.0,45.0,64,30.03,10.0,Calm,Calm,-,N/A,,Clear,0,2013-07-21 14:53:00
7:53 AM,60.1,45.0,57,30.03,10.0,Calm,Calm,-,N/A,,Partly Cloudy,0,2013-07-21 15:53:00
8:53 AM,60.1,46.0,60,30.02,10.0,NNW,8.1,-,N/A,,Clear,340,2013-07-21 16:53:00
9:53 AM,63.0,48.9,60,30.02,10.0,East,5.8,-,N/A,,Clear,80,2013-07-21 17:53:00
10:53 AM,66.9,46.9,49,30.01,10.0,WNW,3.5,-,N/A,,Clear,290,2013-07-21 18:53:00
11:53 AM,68.0,44.1,42,30.00,10.0,Variable,4.6,-,N/A,,Clear,0,2013-07-21 19:53:00
12:53 PM,72.0,44.1,37,29.99,10.0,NNE,8.1,-,N/A,,Clear,30,2013-07-21 20:53:00
1:53 PM,73.9,46.9,38,29.97,10.0,West,10.4,20.7,N/A,,Clear,270,2013-07-21 21:53:00
2:53 PM,77.0,45.0,32,29.96,10.0,Variable,4.6,-,N/A,,Clear,0,2013-07-21 22:53:00
3:53 PM,77.0,43.0,30,29.95,10.0,NNW,6.9,-,N/A,,Clear,330,2013-07-21 23:53:00
4:53 PM,79.0,42.1,27,29.95,10.0,NNW,8.1,-,N/A,,Clear,340,2013-07-22 00:53:00
5:53 PM,75.9,39.9,27,29.93,10.0,North,9.2,-,N/A,,Partly Cloudy,350,2013-07-22 01:53:00
6:53 PM,73.9,44.1,34,29.94,10.0,NW,10.4,17.3,N/A,,Clear,310,2013-07-22 02:53:00
7:53 PM,77.0,39.9,26,29.93,10.0,NNW,15.0,21.9,N/A,,Clear,330,2013-07-22 03:53:00
8:53 PM,75.9,39.0,26,29.93,10.0,NNW,10.4,-,N/A,,Scattered Clouds,330,2013-07-22 04:53:00
9:53 PM,73.9,41.0,30,29.94,10.0,NW,8.1,-,N/A,,Scattered Clouds,310,2013-07-22 05:53:00
10:53 PM,70.0,43.0,38,29.95,10.0,NW,10.4,19.6,N/A,,Scattered Clouds,320,2013-07-22 06:53:00
11:53 PM,68.0,43.0,40,29.96,10.0,NNW,12.7,-,N/A,,Partly Cloudy,330,2013-07-22 07:53:00